CW3786 Weather Reports


Display with metric or nautical units.
time (UTC)temp
F
wind
direction
speed
MPH
gust
MPH
rain 1hr
in
rain 24hr
in
rain mn
in
humidity
%
barometer
mb
20260904090054 61 259 0.0 0.0 0.00 0.00 0.00 90 1004.4
20260904084538 61 259 0.0 0.0 0.00 0.00 0.00 90 1004.5
20260904083034 61 259 0.0 0.0 0.00 0.00 0.00 89 1004.6
20260904081518 61 259 0.0 0.0 0.00 0.00 0.00 89 1004.8
20260904080006 61 259 0.0 0.0 0.00 0.00 0.00 88 1004.7
20260904074600 60 259 0.0 0.0 0.00 0.00 0.00 87 1004.7
20260904074501 60 259 0.0 0.0 0.00 0.00 0.00 87 1004.7
20260904073102 60 259 0.0 0.0 0.00 0.00 0.00 86 1004.7
20260904071556 60 259 0.0 0.0 0.00 0.00 0.00 85 1004.7
20260904070051 61 259 0.0 0.0 0.00 0.00 0.00 86 1004.6
20260904064540 61 259 0.0 0.0 0.00 0.00 0.00 87 1004.7
20260904063106 62 259 0.0 0.0 0.00 0.00 0.00 88 1004.6
20260904061528 62 259 0.0 0.0 0.00 0.00 0.00 88 1004.3
20260904060110 62 259 0.0 0.0 0.00 0.00 0.00 88 1004.3
20260904054549 63 259 0.0 0.0 0.00 0.00 0.00 87 1004.3
20260904053013 63 259 0.0 0.0 0.00 0.00 0.00 86 1004.4
20260904051546 63 259 0.0 0.0 0.00 0.00 0.00 85 1004.4
20260904050023 64 259 0.0 0.0 0.00 0.00 0.00 85 1004.5
20260904044557 64 259 0.0 0.0 0.00 0.00 0.00 84 1004.5
20260904043038 65 259 0.0 0.0 0.00 0.00 0.00 84 1004.3
20260904041553 65 267 0.0 0.0 0.00 0.00 0.00 83 1004.3
20260904040035 65 267 0.0 0.0 0.00 0.00 0.00 83 1004.2
20260904034518 65 267 0.0 0.0 0.00 0.00 0.00 82 1003.9
20260904033048 65 267 1.0 0.0 0.00 0.00 0.00 82 1003.9
20260904031538 66 263 0.0 0.0 0.00 0.00 0.00 82 1003.8
20260904030016 66 261 0.0 0.0 0.00 0.00 0.00 83 1003.7
20260904024606 66 246 0.0 0.0 0.00 0.00 0.00 82 1003.7
20260904023041 66 245 0.0 0.0 0.00 0.00 0.00 81 1003.8
20260904021601 67 296 0.0 0.0 0.00 0.00 0.00 79 1003.8
20260904021506 67 296 0.0 0.0 0.00 0.00 0.00 78 1003.8
20260904020043 67 279 0.0 0.0 0.00 0.00 0.00 73 1003.8
20260904014512 68 279 0.0 0.0 0.00 0.00 0.00 72 1003.8
20260904013105 69 231 0.0 0.0 0.00 0.00 0.00 70 1003.8
20260904011513 69 268 0.0 0.0 0.00 0.00 0.00 67 1003.7
20260904010058 70 268 0.0 0.0 0.00 0.00 0.00 66 1003.7
20260904004550 72 229 0.0 0.0 0.00 0.00 0.00 61 1003.8
20260904003040 73 229 0.0 0.0 0.00 0.00 0.00 61 1003.8
20260904001608 73 236 1.0 0.0 0.00 0.00 0.00 63 1003.8
20260904000044 73 244 1.0 0.0 0.00 0.00 0.00 64 1003.9
20260903234504 74 265 1.0 0.0 0.00 0.00 0.00 63 1004.2
20260903233100 74 245 1.0 0.0 0.00 0.00 0.00 63 1004.2
20260903233001 74 243 1.0 0.0 0.00 0.00 0.00 63 1004.3
20260903231601 73 254 1.0 0.0 0.00 0.00 0.00 64 1004.3
20260903230034 74 266 0.0 0.0 0.00 0.00 0.00 62 1004.3
20260903224530 74 239 1.0 0.0 0.00 0.00 0.00 61 1004.4
20260903223016 75 222 0.0 0.0 0.00 0.00 0.00 60 1004.8
20260903221550 75 263 0.0 0.0 0.00 0.00 0.00 62 1004.8
20260903220037 76 234 0.0 0.0 0.00 0.00 0.00 61 1004.8
20260903214530 75 173 1.0 0.0 0.00 0.00 0.00 61 1004.9
20260903213102 76 229 0.0 0.0 0.00 0.00 0.00 59 1004.9
20260903211541 75 182 0.0 0.0 0.00 0.00 0.00 61 1005.0
20260903210003 75 163 0.0 0.0 0.00 0.00 0.00 61 1005.4
20260903204547 74 267 0.0 0.0 0.00 0.00 0.00 63 1005.4
20260903203027 75 195 0.0 0.0 0.00 0.00 0.00 60 1005.4
20260903201514 75 181 1.0 0.0 0.00 0.00 0.00 60 1005.5
20260903200047 75 180 0.0 0.0 0.00 0.00 0.00 57 1005.5
20260903194525 78 261 0.0 0.0 0.00 0.00 0.00 55 1005.8
20260903193008 77 159 0.0 0.0 0.00 0.00 0.00 58 1006.0
20260903191544 77 113 0.0 0.0 0.00 0.00 0.00 57 1006.0
20260903190024 75 360 0.0 0.0 0.00 0.00 0.00 62 1006.4
20260903184512 74 208 0.0 0.0 0.00 0.00 0.00 62 1006.6
20260903183051 73 105 0.0 0.0 0.00 0.00 0.00 65 1006.6
20260903181536 73 290 0.0 0.0 0.00 0.00 0.00 66 1006.8
20260903180108 73 294 0.0 0.0 0.00 0.00 0.00 65 1006.7
20260903180001 73 294 0.0 0.0 0.00 0.00 0.00 65 1006.5
20260903174541 75 300 0.0 0.0 0.00 0.00 0.00 62 1006.5
20260903173105 77 302 0.0 0.0 0.00 0.00 0.00 59 1006.8
20260903173001 77 13 0.0 0.0 0.00 0.00 0.00 58 1006.8
20260903171557 75 71 0.0 0.0 0.00 0.00 0.00 61 1006.8
20260903170028 72 232 0.0 0.0 0.00 0.00 0.00 67 1006.6
20260903164511 71 247 0.0 0.0 0.00 0.00 0.00 70 1006.5
20260903163110 70 150 0.0 0.0 0.00 0.00 0.00 71 1006.5
20260903161526 68 150 0.0 0.0 0.00 0.00 0.00 75 1006.6
20260903160021 68 150 0.0 0.0 0.00 0.00 0.00 83 1006.6
20260903154600 66 194 0.0 0.0 0.00 0.00 0.00 91 1006.6
20260903154502 66 194 0.0 0.0 0.00 0.00 0.00 91 1006.5
20260903153038 65 218 0.0 0.0 0.00 0.00 0.00 94 1006.5
20260903151522 63 224 0.0 0.0 0.00 0.00 0.00 95 1006.6
20260903150020 62 224 0.0 0.0 0.00 0.00 0.00 94 1006.6
20260903144515 61 224 0.0 0.0 0.00 0.00 0.00 93 1006.5
20260903143004 61 224 0.0 0.0 0.00 0.00 0.00 93 1006.2
20260903141526 61 224 0.0 0.0 0.00 0.00 0.00 93 1006.2
20260903140011 61 224 0.0 0.0 0.00 0.00 0.00 93 1006.0
20260903134531 61 224 0.0 0.0 0.00 0.00 0.00 93 1006.0
20260903133014 61 224 0.0 0.0 0.00 0.00 0.00 93 1005.9
20260903131550 61 224 0.0 0.0 0.00 0.00 0.00 92 1005.9
20260903130043 62 224 0.0 0.0 0.00 0.00 0.00 92 1005.9
20260903124534 62 224 0.0 0.0 0.00 0.00 0.00 93 1005.9
20260903123028 62 224 0.0 0.0 0.00 0.00 0.00 93 1005.9
20260903121532 62 224 0.0 0.0 0.00 0.00 0.00 92 1005.9
20260903120004 62 224 0.0 0.0 0.00 0.00 0.00 92 1006.0
20260903114504 62 224 0.0 0.0 0.00 0.00 0.00 92 1006.2
20260903113103 62 224 0.0 0.0 0.00 0.00 0.00 92 1006.2
20260903113002 62 224 0.0 0.0 0.00 0.00 0.00 92 1006.2
20260903111554 62 224 0.0 0.0 0.00 0.00 0.00 91 1006.2
20260903110031 62 224 0.0 0.0 0.00 0.00 0.00 91 1006.3
20260903104514 63 224 0.0 0.0 0.00 0.00 0.00 92 1006.4
20260903103007 63 224 0.0 0.0 0.00 0.00 0.00 90 1006.4
20260903101534 63 224 0.0 0.0 0.00 0.00 0.00 90 1006.4
20260903100032 63 224 0.0 0.0 0.00 0.00 0.00 89 1006.5
20260903094504 63 224 0.0 0.0 0.00 0.00 0.00 89 1006.5
20260903093059 64 224 0.0 0.0 0.00 0.00 0.00 89 1006.5
20260903093001 63 224 0.0 0.0 0.00 0.00 0.00 89 1006.5
20260903091539 63 224 0.0 0.0 0.00 0.00 0.00 89 1006.5